YZ-1 R/B, 43584

Orbit data source: Space-Track

YZ-1 R/B, 43584 is space debris originally from a launch on Sun, 29 Jul 2018 UTC launched from the Xichang Space Center, China (XSC). Debris objects in space refer to the collection of defunct objects orbiting the Earth. Examples of debris include non-operational satellites, rocket bodies, and fragments generated from explosions, collisions, or faulty payload assembly.

Loading next visibility...
Identifier
43584, 2018-062D
Orbit
Active
Country
Flag of CNCN / PRC
Related business
Manufacturer
CALT
Mission
Spacecraft
Bus & Motor
YZ-1, Unknown motor
Mass
~2,075 kg wet, ~2,075 kg dry
Launch date (UTC)
2018-07-29 (7 years ago)
Launch vehicle
Unknown
Launch site
Xichang Space Center, China (XSC)
Object type
Payload
Rocket body
Debris
Shape & HBR
Double Cone, 2.0 m
Radar Cross Section
5.890 m², Large (>1 m²)

Expand to show TLE details & history
Last TLE update: 20 hours ago

TLE from 20 hours ago
0 YZ-1 R/B
1 43584U 18062D   25241.61259519  .00000032  00000-0  00000-0 0  9998
2 43584  54.0396 199.6667 0042203  44.7723 315.5404  1.78871196 46308
Epoch: 2025-08-29T14:42Z
TLE epoch observation values (Epoch: 2025-08-29T14:42:08.224Z)
Latitude
-0.00003°
Longitude
1.06437°
Altitude
22,202.538 km
Speed
3.74 km/s
True Right ascension
13h 18m 37s
True Declination
0° 00' 00"
Sunlit
Object was in daylight at epoch
Visualization orbit readout
Latitude
Unknown
Longitude
Unknown
Altitude
Unknown
Speed
Unknown
Apparent Right ascension
Unknown
Apparent Declination
Unknown
Sunlit
N/A
Visualization observer readout
Local Sidereal Time
02:35:01
Azimuth
Unknown
Elevation
Unknown
Doppler factor
Unknown
Orbital elements
Apogee altitude
22,409.404 km
Perigee altitude
22,167.441 km
Semi-major axis
28,666.559 km
Eccentricity
0.00422
Inclination
54.0396°
RAAN
199.6667°
Arg. of periapsis
44.7723°
True anomaly
315.2004°
Mean anomaly
315.5404°
Eccentric anomaly
315.37053°
Mean motion
0.44718 °/min
Orbital period
805.05 mins
BSTAR
0
Loading maneuver chart data...
Computing Atmospheric mass density...
Loading historical data...
Loading historical data...
Loading historical data...
Loading historical data...
Loading historical data...
Loading historical data...
Loading historical data...
Other satellites on launch #62 in the year 2018 (2018-07-29 UTC)

Documentation

Showing up to 5 results
|